Flag for U.S.A. Weather past 2 weeks in Oxnard, California, U.S.A.

Now
65 °F

Clear.


Feels Like: 65 °F
Forecast: 65 / 74 °F
Wind: 3 mph from Northwest

Location: Oxnard Airport

Current Time: Jul 28, 2014 at 1:56:32 AM

Latest Report: Jul 28, 2014 at 12:51 AM


Visibility: 7 mi

Pressure: 29.98 "Hg

Humidity: 91%

Dew point: 62 °F

Location of OxnardLocation

Historic Weather in Oxnard — Graph

°F

Oxnard temperature yesterday

Maximum temperature yesterday: 74 °F (at 4:51 PM)
Minimum temperature yesterday: 64 °F (at 5:51 AM)
Average temperature yesterday: 68 °F

Past Weeks' High & Low Weather Summary

 TemperatureHumidityPressure
High77 °F (Jul 24, 2:51 PM)100% (Jul 26, 3:00 AM)30.07 "Hg (Jul 26, 3:00 AM)
Low61 °F (Jul 22, 5:51 AM)54% (Jul 21, 1:51 PM)29.75 "Hg (Jul 24, 5:51 PM)
Average68 °F78%29.96 "Hg
* Reported Jul 12 11:51 PM — Jul 27 11:51 PM, Oxnard, Weather by CustomWeather, © 2014

Note: Actual official high and low records may vary slightly from our data, if they occured in-between our weather recording intervals... More about our weather records

Advertising

Oxnard weather history for previous 24 hours

 ConditionsComfort  
Time TempWeatherWind HumidityBarometerVisibility
11:51 PM
Jul 27
65 °FClear.5 mph91%29.98 "Hg8 mi
10:51 PM66 °FClear.9 mph87%29.96 "Hg10 mi
9:51 PM66 °FClear.8 mph87%29.96 "Hg10 mi
8:51 PM66 °FSunny.9 mph87%29.95 "Hg10 mi
7:51 PM67 °FSunny.13 mph85%29.93 "Hg9 mi
6:51 PM69 °FSunny.16 mph81%29.92 "Hg10 mi
5:51 PM73 °FSunny.16 mph71%29.93 "Hg10 mi
4:51 PM74 °FSunny.13 mph64%29.95 "Hg10 mi
3:51 PM72 °FSunny.8 mph71%29.98 "Hg10 mi
2:51 PM71 °FSunny.8 mph73%30.01 "Hg10 mi
1:51 PM73 °FSunny.8 mph69%30.01 "Hg10 mi
12:51 PM71 °FSunny.7 mph71%30.02 "Hg10 mi
11:51 AM69 °FScattered clouds.8 mph79%30.01 "Hg10 mi
10:51 AM67 °FPassing clouds.8 mph85%30.01 "Hg9 mi
9:51 AM69 °FPassing clouds.6 mph79%30.01 "Hg9 mi
8:51 AM67 °FPassing clouds.3 mph85%30.00 "Hg8 mi
7:51 AM66 °FLow clouds.No wind87%29.99 "Hg8 mi
6:51 AM65 °FLow clouds.No wind91%29.96 "Hg7 mi
5:51 AM64 °FLow clouds.3 mph90%29.95 "Hg9 mi
4:51 AM65 °FLow clouds.5 mph87%29.96 "Hg9 mi
3:51 AM65 °FLow clouds.6 mph87%29.96 "Hg9 mi
2:51 AM65 °FLow clouds.3 mph91%29.96 "Hg8 mi
1:51 AM66 °FLow clouds.No wind87%29.97 "Hg9 mi
Weather by CustomWeather, © 2014

See weather overviewHow to use our weather pages